Location: ????????
(55.3939°N, 37.4780°E)
Time: 21:49:26
(UTC+00:00)

USA 229 - Pass Details

Date: 14 April 2026
Orbit: 843 x 1365 km, 63.4° (Epoch: 10 January)

Event Time Altitude Azimuth Distance (km) Brightness Sun altitude
Rises 21:50:56 0° 306° (NW) 3,852 7.0 -24.8°
Reaches altitude 10° 21:53:28 10° 308° (NW) 2,967 6.4 -24.8°
Maximum altitude 22:00:39 77° 35° (NE) 1,242 4.0 -24.6°
Drops below altitude 10° 22:08:44 10° 121° (ESE) 3,317 6.1 -24.4°
Sets 22:11:42 0° 123° (ESE) 4,331 6.7 -24.4°
